Location: Unspecified
(0.0000°N, 0.0000°E)
Time: 11:00:58
(UTC+00:00)

USA 278 - Visible Passes

Search period start: 05 June 2023 00:00
Search period end: 15 June 2023 00:00
Orbit: 1466 x 38888 km, 63.2° (Epoch: 27 February)

Date Brightness Start Highest point End Pass type
(mag) Time Alt. Az. Time Alt. Az. Time Alt. Az.
05 Jun ? 02:51:37 40° W 03:05:17 45° WNW 14:01:33 10° S visible
06 Jun ? 02:47:24 40° W 03:00:49 45° WNW 13:57:06 10° S visible
07 Jun ? 02:43:11 40° W 02:56:22 45° WNW 13:52:39 10° S visible
08 Jun ? 02:38:56 40° W 02:51:54 45° WNW 13:48:12 10° S visible
09 Jun ? 02:34:41 41° W 02:47:26 45° WNW 13:43:45 10° S visible
10 Jun ? 02:30:24 41° W 02:42:59 45° WNW 13:39:18 10° S visible
11 Jun ? 02:26:07 41° W 02:38:31 45° WNW 13:34:51 10° S visible
12 Jun ? 02:21:47 41° W 02:34:04 45° WNW 13:30:24 10° S visible
13 Jun ? 02:17:26 41° W 02:29:36 45° WNW 13:25:57 10° S visible
14 Jun ? 02:13:05 41° W 02:25:09 45° WNW 13:21:30 10° S visible
